QPF
0.00 0.00 0.00 0.00 0.00 0.00 0.00 0.00 0.02 0.02 0.01 0.03 0.06 0.04 0.09 0.12 0.17 0.20 0.15 0.04 0.06 0.34 0.13 0.02 0.00 0.01 0.01 0.00 0.00 0.00 0.00 0.00 0.00 0.00 0.00 0.00 0.00 0.00 0.00 0.00 0.00 0.00 0.00
0.00 0.00 0.00 0.00 0.00 0.00 0.00 0.01 0.05 0.07 0.03 0.05 0.06 0.06 0.09 0.13 0.12 0.15 0.26 0.26 0.18 0.21 0.30 0.12 0.04 0.02 0.03 0.01 0.01 0.01 0.01 0.00 0.00 0.00 0.00 0.00 0.00 0.00 0.00 0.00 0.00 0.00 0.00
0.00 0.00 0.00 0.00 0.00 0.00 0.00 0.03 0.08 0.08 0.07 0.03 0.04 0.05 0.03 0.01 0.02 0.05 0.14 0.25 0.22 0.15 0.13 0.04 0.08 0.08 0.06 0.02 0.01 0.01 0.01 0.01 0.00 0.00 0.00 0.00 0.00 0.00 0.00 0.00 0.00 0.00 0.00
0.00 0.00 0.00 0.00 0.00 0.00 0.00 0.02 0.05 0.06 0.04 0.02 0.03 0.03 0.02 0.00 0.00 0.01 0.05 0.17 0.24 0.13 0.05 0.00 0.00 0.02 0.03 0.02 0.01 0.01 0.01 0.01 0.00 0.00 0.00 0.00 0.00 0.00 0.00 0.00 0.00 0.00 0.00
0.00 0.00 0.00 0.00 0.00 0.00 0.00 0.00 0.02 0.03 0.03 0.02 0.01 0.02 0.01 0.01 0.00 0.00 0.00 0.04 0.16 0.16 0.08 0.02 0.00 0.00 0.01 0.02 0.01 0.01 0.01 0.00 0.01 0.01 0.01 0.00 0.00 0.00 0.00 0.00 0.00 0.00 0.00
0.00 0.00 0.00 0.00 0.00 0.00 0.00 0.00 0.00 0.01 0.01 0.04 0.03 0.02 0.01 0.01 0.01 0.00 0.00 0.01 0.05 0.08 0.04 0.00 0.00 0.00 0.00 0.00 0.01 0.01 0.01 0.01 0.01 0.01 0.00 0.00 0.00 0.00 0.00 0.00 0.00 0.00 0.00
0.00 0.00 0.00 0.00 0.00 0.00 0.00 0.00 0.00 0.00 0.00 0.01 0.04 0.02 0.02 0.01 0.00 0.00 0.01 0.00 0.02 0.03 0.01 0.00 0.00 0.00 0.00 0.00 0.00 0.01 0.01 0.01 0.01 0.01 0.01 0.00 0.00 0.00 0.00 0.00 0.00 0.00 0.00
0.00 0.00 0.00 0.00 0.00 0.00 0.00 0.00 0.00 0.00 0.00 0.01 0.02 0.02 0.01 0.01 0.00 0.00 0.00 0.00 0.01 0.01 0.01 0.00 0.00 0.00 0.00 0.00 0.00 0.00 0.01 0.01 0.01 0.01 0.01 0.00 0.00 0.00 0.00 0.00 0.00 0.00 0.00
0.00 0.00 0.00 0.00 0.00 0.00 0.00 0.00 0.00 0.00 0.00 0.00 0.00 0.00 0.00 0.00 0.00 0.00 0.00 0.00 0.00 0.00 0.00 0.00 0.00 0.00 0.00 0.00 0.00 0.00 0.00 0.01 0.01 0.00 0.01 0.01 0.00 0.00 0.00 0.00 0.00 0.00 0.00
0.03 0.00 0.00 0.00 0.00 0.00 0.00 0.00 0.00 0.00 0.00 0.00 0.00 0.00 0.00 0.00 0.00 0.00 0.00 0.00 0.00 0.00 0.00 0.00 0.00 0.00 0.00 0.00 0.00 0.00 0.00 0.00 0.00 0.00 0.00 0.00 0.00 0.00 0.00 0.00 0.00 0.00 0.00
0.01 0.00 0.00 0.00 0.00 0.00 0.01 0.00 0.01 0.01 0.01 0.01 0.01 0.03 0.01 0.00 0.00 0.00 0.00 0.00 0.00 0.00 0.00 0.00 0.00 0.00 0.00 0.00 0.00 0.00 0.00 0.00 0.00 0.00 0.00 0.00 0.00 0.00 0.00 0.00 0.00 0.00 0.00
0.02 0.00 0.00 0.00 0.00 0.00 0.00 0.00 0.01 0.01 0.02 0.03 0.03 0.03 0.02 0.01 0.00 0.00 0.00 0.00 0.00 0.00 0.00 0.00 0.00 0.00 0.00 0.00 0.00 0.00 0.00 0.00 0.00 0.00 0.00 0.00 0.00 0.00 0.00 0.00 0.00 0.00 0.00
0.00 0.00 0.00 0.00 0.00 0.00 0.00 0.00 0.01 0.00 0.01 0.01 0.01 0.01 0.02 0.01 0.00 0.01 0.00 0.00 0.00 0.00 0.00 0.00 0.00 0.00 0.00 0.00 0.00 0.00 0.00 0.00 0.00 0.00 0.00 0.00 0.00 0.00 0.00 0.00 0.00 0.00 0.00
0.00 0.01 0.00 0.00 0.00 0.00 0.00 0.01 0.01 0.01 0.01 0.01 0.01 0.01 0.01 0.00 0.00 0.00 0.00 0.00 0.00 0.00 0.00 0.00 0.00 0.00 0.00 0.00 0.00 0.00 0.00 0.00 0.00 0.00 0.00 0.00 0.00 0.00 0.00 0.00 0.00 0.01 0.01
0.06 0.03 0.00 0.00 0.00 0.00 0.00 0.01 0.01 0.01 0.01 0.01 0.01 0.02 0.02 0.01 0.01 0.00 0.00 0.00 0.00 0.00 0.00 0.00 0.00 0.00 0.00 0.00 0.00 0.00 0.00 0.00 0.00 0.00 0.00 0.00 0.00 0.00 0.00 0.00 0.00 0.00 0.00
0.08 0.02 0.00 0.00 0.00 0.00 0.00 0.01 0.00 0.00 0.00 0.01 0.01 0.01 0.01 0.01 0.01 0.00 0.00 0.00 0.00 0.00 0.00 0.00 0.00 0.00 0.00 0.00 0.00 0.00 0.00 0.00 0.00 0.00 0.00 0.00 0.00 0.00 0.00 0.00 0.00 0.00 0.00
0.09 0.04 0.01 0.00 0.00 0.00 0.00 0.00 0.00 0.00 0.00 0.00 0.01 0.02 0.01 0.01 0.01 0.00 0.00 0.00 0.00 0.00 0.00 0.00 0.00 0.00 0.00 0.00 0.01 0.02 0.01 0.00 0.00 0.00 0.00 0.00 0.00 0.00 0.00 0.00 0.00 0.00 0.00
0.06 0.02 0.00 0.00 0.00 0.00 0.00 0.00 0.00 0.00 0.00 0.00 0.00 0.00 0.00 0.01 0.00 0.00 0.00 0.00 0.00 0.00 0.00 0.00 0.00 0.00 0.00 0.00 0.00 0.03 0.02 0.01 0.00 0.00 0.00 0.00 0.00 0.00 0.00 0.00 0.00 0.00 0.00
0.02 0.01 0.00 0.00 0.00 0.00 0.00 0.00 0.00 0.00 0.00 0.00 0.00 0.00 0.00 0.00 0.00 0.00 0.00 0.00 0.00 0.00 0.00 0.00 0.00 0.00 0.00 0.00 0.00 0.00 0.00 0.00 0.00 0.00 0.00 0.00 0.00 0.00 0.00 0.00 0.00 0.00 0.00
0.01 0.00 0.00 0.00 0.00 0.00 0.00 0.00 0.00 0.00 0.00 0.00 0.00 0.00 0.00 0.00 0.00 0.00 0.00 0.00 0.00 0.00 0.00 0.00 0.00 0.00 0.00 0.00 0.00 0.00 0.00 0.00 0.00 0.00 0.00 0.00 0.00 0.00 0.00 0.00 0.00 0.00 0.00
0.00 0.00 0.00 0.00 0.00 0.00 0.00 0.00 0.00 0.00 0.00 0.00 0.00 0.00 0.00 0.00 0.00 0.00 0.00 0.00 0.00 0.00 0.00 0.00 0.00 0.00 0.00 0.00 0.00 0.00 0.00 0.00 0.00 0.00 0.00 0.00 0.00 0.00 0.00 0.00 0.00 0.00 0.00
0.00 0.00 0.00 0.00 0.00 0.00 0.00 0.00 0.00 0.00 0.00 0.00 0.00 0.00 0.00 0.00 0.00 0.00 0.00 0.00 0.00 0.00 0.00 0.00 0.00 0.00 0.00 0.00 0.00 0.00 0.00 0.00 0.00 0.00 0.00 0.00 0.00 0.00 0.00 0.00 0.00 0.00 0.00
0.00 0.00 0.00 0.00 0.00 0.00 0.00 0.00 0.00 0.00 0.00 0.00 0.00 0.00 0.00 0.00 0.00 0.00 0.00 0.00 0.00 0.00 0.00 0.00 0.00 0.00 0.00 0.00 0.00 0.00 0.00 0.00 0.00 0.00 0.00 0.00 0.00 0.00 0.00 0.00 0.00 0.00 0.00
0.00 0.00 0.00 0.00 0.00 0.00 0.00 0.00 0.00 0.00 0.00 0.00 0.00 0.00 0.00 0.00 0.00 0.00 0.00 0.00 0.00 0.00 0.00 0.00 0.00 0.00 0.00 0.00 0.00 0.00 0.00 0.00 0.00 0.00 0.00 0.00 0.00 0.00 0.00 0.00 0.00 0.00 0.00
0.00 0.00 0.00 0.00 0.00 0.00 0.00 0.00 0.00 0.00 0.00 0.00 0.00 0.00 0.00 0.00 0.00 0.00 0.00 0.00 0.00 0.00 0.00 0.00 0.00 0.00 0.00 0.00 0.00 0.00 0.00 0.00 0.00 0.00 0.00 0.00 0.00 0.00 0.00 0.00 0.00 0.00 0.00
0.00 0.00 0.00 0.00 0.00 0.00 0.00 0.00 0.00 0.00 0.00 0.00 0.00 0.00 0.00 0.00 0.00 0.00 0.00 0.00 0.00 0.00 0.00 0.00 0.00 0.00 0.00 0.00 0.00 0.00 0.00 0.00 0.00 0.00 0.00 0.00 0.00 0.00 0.00 0.00 0.00 0.00 0.00
MSLP
1011.48 1011.79 1012.11 1012.53 1012.92 1013.22 1013.55 1014.02 1014.36 1014.76 1015.16 1015.51 1015.75 1015.93 1016.12 1016.57 1016.71 1017.39 1017.25 1016.76 1017.02 1017.38 1017.67 1018.39 1018.97 1019.73 1020.36 1020.88 1021.18 1021.65 1022.12 1022.49 1022.84 1023.18 1023.52 1023.87 1024.30 1024.49 1024.81 1025.19 1025.55 1025.85 1026.09
1010.98 1011.59 1011.94 1012.43 1012.82 1013.16 1013.58 1013.99 1014.34 1014.80 1015.21 1015.44 1015.72 1015.78 1016.06 1016.57 1016.93 1017.47 1017.65 1017.57 1017.38 1017.44 1017.76 1018.06 1018.81 1019.41 1020.04 1020.63 1021.20 1021.59 1022.03 1022.47 1022.86 1023.23 1023.57 1024.02 1024.33 1024.64 1024.94 1025.27 1025.56 1025.90 1026.15
1010.50 1011.19 1011.69 1012.28 1012.67 1013.13 1013.58 1014.16 1014.51 1014.72 1015.28 1015.30 1015.68 1015.66 1016.05 1016.37 1016.89 1017.22 1017.58 1017.77 1017.68 1017.36 1017.78 1018.16 1018.77 1019.25 1019.80 1020.38 1020.88 1021.48 1021.85 1022.35 1022.77 1023.11 1023.63 1024.00 1024.34 1024.70 1025.11 1025.45 1025.73 1026.01 1026.26
1010.21 1010.82 1011.42 1011.89 1012.46 1012.97 1013.44 1014.11 1014.42 1014.82 1015.24 1015.39 1015.50 1015.82 1015.78 1016.20 1016.56 1017.06 1017.54 1017.82 1017.85 1017.34 1017.78 1018.24 1018.61 1019.23 1019.69 1020.12 1020.64 1021.29 1021.64 1022.21 1022.64 1023.13 1023.60 1023.92 1024.27 1024.65 1025.05 1025.43 1025.83 1026.13 1026.32
1009.76 1010.48 1010.95 1011.51 1012.15 1012.74 1013.27 1013.78 1014.13 1014.47 1014.94 1015.22 1015.31 1015.58 1015.67 1016.23 1016.36 1016.76 1016.95 1017.44 1017.84 1017.87 1017.60 1018.06 1018.53 1019.10 1019.54 1019.90 1020.45 1020.95 1021.43 1022.00 1022.58 1022.95 1023.41 1023.80 1024.14 1024.43 1024.79 1025.21 1025.55 1025.93 1026.25
1009.43 1009.90 1010.62 1011.04 1011.65 1012.49 1013.00 1013.39 1013.70 1014.10 1014.46 1015.04 1015.44 1015.61 1016.11 1016.02 1016.41 1016.69 1016.85 1017.13 1017.59 1017.89 1017.99 1018.05 1018.56 1019.05 1019.38 1019.81 1020.26 1020.85 1021.33 1021.80 1022.34 1022.75 1023.15 1023.64 1024.08 1024.39 1024.67 1025.03 1025.40 1025.75 1025.98
1008.90 1009.58 1010.20 1010.67 1011.28 1011.95 1012.41 1012.87 1013.36 1013.73 1014.12 1014.71 1015.39 1015.65 1015.84 1016.09 1016.20 1016.59 1016.64 1016.89 1017.26 1017.66 1017.93 1018.09 1018.51 1018.99 1019.31 1019.72 1020.16 1020.69 1021.18 1021.52 1021.98 1022.39 1022.88 1023.48 1023.89 1024.30 1024.63 1024.89 1025.19 1025.53 1025.84
1007.99 1008.95 1009.58 1010.18 1010.74 1011.40 1011.95 1012.34 1012.84 1013.16 1013.72 1014.07 1014.80 1015.17 1015.64 1016.08 1016.09 1016.05 1016.57 1016.76 1017.01 1017.02 1017.30 1018.00 1018.31 1018.89 1019.14 1019.52 1019.99 1020.44 1020.97 1021.18 1021.58 1022.04 1022.59 1023.19 1023.72 1024.16 1024.52 1024.80 1025.07 1025.38 1025.56
1007.24 1008.14 1008.87 1009.60 1010.23 1010.81 1011.34 1011.85 1012.31 1012.70 1013.05 1013.57 1013.95 1014.42 1015.11 1015.41 1015.83 1016.16 1016.11 1016.12 1016.48 1016.78 1017.05 1017.62 1018.14 1018.62 1018.98 1019.27 1019.81 1020.24 1020.58 1020.92 1021.24 1021.74 1022.25 1022.80 1023.29 1023.71 1024.05 1024.33 1024.54 1024.75 1025.04
1006.45 1007.38 1008.11 1008.92 1009.58 1010.13 1010.73 1011.23 1011.71 1012.11 1012.54 1012.89 1013.62 1013.75 1013.92 1014.39 1015.27 1016.05 1015.96 1015.88 1015.83 1016.21 1016.58 1017.27 1017.85 1018.32 1018.74 1019.11 1019.56 1019.89 1020.27 1020.71 1021.06 1021.40 1021.78 1022.25 1022.63 1023.04 1023.47 1023.88 1024.07 1024.31 1024.66
1005.86 1006.71 1007.55 1008.36 1009.01 1009.52 1010.13 1010.72 1011.28 1011.56 1011.93 1012.32 1012.67 1013.21 1013.82 1014.19 1014.40 1014.93 1015.50 1015.78 1016.04 1016.13 1016.37 1016.89 1017.46 1017.95 1018.34 1018.82 1019.29 1019.64 1019.94 1020.32 1020.73 1021.01 1021.35 1021.70 1022.09 1022.47 1022.88 1023.23 1023.63 1023.89 1024.08
1005.23 1006.10 1006.88 1007.68 1008.37 1009.00 1009.58 1010.26 1010.83 1011.15 1011.50 1011.96 1012.11 1012.40 1012.68 1013.33 1013.73 1013.96 1014.47 1015.08 1015.40 1015.60 1016.04 1016.67 1017.26 1017.62 1017.97 1018.41 1018.79 1019.12 1019.60 1020.00 1020.41 1020.75 1021.04 1021.33 1021.70 1022.06 1022.30 1022.61 1022.89 1023.21 1023.47
1004.69 1005.52 1006.01 1007.00 1007.85 1008.59 1009.12 1009.76 1010.39 1010.74 1011.10 1011.64 1011.84 1011.83 1012.29 1012.44 1012.83 1013.08 1013.56 1014.34 1014.85 1015.42 1015.91 1016.18 1016.79 1017.10 1017.49 1017.84 1018.23 1018.60 1019.06 1019.53 1020.00 1020.27 1020.63 1021.05 1021.40 1021.72 1021.86 1022.10 1022.36 1022.60 1022.83
1003.65 1004.45 1005.31 1006.42 1007.31 1008.12 1008.72 1009.35 1009.80 1010.37 1010.69 1011.00 1011.27 1011.39 1011.64 1011.94 1012.25 1012.51 1012.77 1013.40 1014.44 1014.85 1015.29 1015.45 1015.94 1016.32 1016.73 1017.16 1017.46 1017.91 1018.40 1018.84 1019.32 1019.81 1020.21 1020.60 1020.91 1021.23 1021.46 1021.74 1021.95 1022.06 1022.25
1003.69 1004.34 1005.07 1005.87 1006.95 1007.80 1008.40 1008.87 1009.51 1009.92 1010.27 1010.47 1010.69 1010.89 1010.98 1011.21 1011.46 1011.78 1012.07 1012.33 1012.66 1013.86 1014.39 1015.04 1015.28 1015.52 1015.93 1016.41 1016.74 1017.29 1017.72 1018.09 1018.57 1019.07 1019.61 1020.00 1020.34 1020.73 1021.01 1021.20 1021.47 1021.65 1021.81
1003.52 1004.13 1004.92 1005.65 1006.71 1007.55 1008.06 1008.70 1009.10 1009.50 1009.74 1009.95 1010.16 1010.29 1010.38 1010.61 1010.83 1011.33 1011.08 1011.68 1012.03 1012.78 1013.56 1013.68 1014.26 1014.49 1014.78 1015.43 1015.93 1016.56 1016.93 1017.38 1017.98 1018.53 1019.01 1019.44 1019.89 1020.25 1020.58 1020.81 1021.09 1021.31 1021.56
1003.46 1004.09 1004.78 1005.53 1006.79 1007.44 1008.02 1008.53 1008.94 1009.41 1009.64 1009.77 1009.82 1009.73 1009.66 1009.81 1010.04 1010.39 1010.69 1010.95 1011.68 1012.05 1012.70 1013.44 1013.81 1014.16 1014.53 1014.99 1015.64 1016.18 1016.81 1017.68 1018.25 1018.72 1018.90 1019.19 1019.68 1020.06 1020.46 1020.68 1020.90 1021.14 1021.27
1003.65 1004.18 1005.00 1005.85 1006.64 1007.33 1007.79 1008.20 1008.69 1008.90 1009.08 1009.35 1009.37 1009.23 1009.10 1009.18 1009.29 1009.49 1009.76 1010.34 1010.92 1011.36 1011.96 1012.89 1013.34 1013.73 1014.06 1014.54 1015.19 1016.16 1016.91 1017.98 1018.65 1019.20 1019.16 1019.84 1020.07 1020.49 1020.61 1020.88 1021.25 1021.40 1021.72
1003.47 1004.41 1005.10 1005.94 1006.50 1007.07 1007.51 1007.78 1008.30 1008.58 1008.86 1009.04 1008.84 1008.67 1008.46 1008.34 1008.44 1008.90 1008.67 1009.53 1010.12 1010.99 1011.51 1012.24 1012.90 1013.16 1013.89 1014.66 1015.35 1016.37 1017.40 1018.58 1019.48 1019.94 1020.12 1020.32 1020.64 1021.09 1021.29 1021.69 1021.92 1022.01 1022.28
1003.37 1004.42 1005.15 1005.99 1006.60 1007.16 1007.43 1007.64 1008.05 1008.28 1008.78 1008.93 1008.92 1008.60 1008.09 1007.70 1007.38 1007.45 1008.04 1008.64 1009.41 1010.12 1011.00 1011.70 1012.50 1013.05 1013.51 1014.70 1014.98 1016.02 1017.59 1018.68 1019.66 1020.35 1020.56 1020.75 1021.33 1021.70 1021.88 1021.76 1021.93 1022.38 1022.68
1003.90 1004.81 1005.81 1006.68 1007.33 1007.56 1008.06 1008.06 1008.17 1008.04 1008.95 1009.29 1009.53 1009.35 1009.18 1008.36 1007.26 1007.15 1007.57 1008.21 1008.88 1009.66 1010.32 1011.13 1012.01 1012.86 1013.57 1014.28 1014.87 1015.77 1017.35 1018.64 1019.74 1020.12 1020.26 1021.14 1021.40 1021.98 1022.35 1022.51 1022.67 1022.94 1023.23
1005.41 1006.25 1007.24 1007.76 1008.30 1008.59 1008.54 1007.99 1008.36 1008.44 1009.46 1009.75 1009.93 1010.08 1010.10 1009.88 1009.43 1008.87 1008.99 1009.41 1009.08 1009.55 1010.03 1010.72 1011.87 1012.83 1013.65 1014.29 1015.01 1015.69 1017.05 1018.69 1020.02 1020.38 1020.73 1021.83 1022.07 1022.62 1023.00 1023.21 1023.34 1023.59 1023.67
1007.12 1007.95 1008.57 1009.03 1009.66 1009.70 1009.14 1008.77 1008.61 1009.22 1010.08 1010.67 1010.80 1010.81 1010.95 1011.01 1010.62 1010.41 1010.21 1010.15 1010.67 1010.81 1010.89 1010.93 1012.03 1013.27 1014.15 1014.60 1014.87 1015.88 1016.69 1017.70 1019.32 1020.71 1020.89 1022.40 1022.80 1023.22 1023.53 1023.73 1023.91 1023.93 1024.20
1008.99 1009.59 1010.12 1010.45 1010.59 1010.77 1010.40 1010.12 1009.78 1010.00 1010.78 1011.55 1011.65 1011.76 1011.83 1011.95 1011.83 1011.33 1011.69 1011.81 1012.49 1012.93 1013.18 1013.08 1013.60 1014.71 1014.87 1015.14 1015.48 1015.99 1017.06 1018.63 1020.14 1021.10 1021.16 1022.39 1023.20 1023.74 1023.92 1024.06 1024.43 1024.27 1024.35
1010.35 1011.20 1011.70 1011.73 1011.72 1011.77 1011.65 1011.56 1011.03 1011.08 1011.54 1012.37 1012.71 1012.81 1012.80 1012.87 1012.99 1012.96 1012.90 1013.60 1014.61 1015.50 1015.71 1015.18 1015.73 1015.74 1016.07 1016.22 1016.29 1016.72 1018.05 1018.66 1020.51 1021.87 1022.13 1022.31 1023.49 1023.84 1024.39 1024.86 1024.91 1024.69 1024.82
1011.83 1012.56 1013.00 1012.98 1012.85 1012.93 1012.95 1013.05 1012.27 1012.28 1012.48 1013.31 1013.84 1014.20 1014.15 1014.10 1014.20 1014.21 1014.45 1015.09 1015.60 1016.94 1016.83 1016.92 1017.11 1017.10 1017.55 1017.70 1017.98 1017.90 1018.34 1019.16 1020.39 1022.24 1022.68 1023.00 1023.75 1023.72 1024.49 1025.50 1025.52 1025.67 1025.86
Thickness
5679 5677 5675 5671 5668 5666 5662 5657 5653 5648 5645 5642 5641 5640 5640 5637 5636 5632 5635 5642 5643 5642 5641 5639 5637 5634 5632 5631 5632 5631 5629 5628 5627 5625 5623 5622 5619 5619 5618 5616 5614 5612 5610
5677 5673 5671 5667 5663 5660 5656 5651 5647 5644 5640 5637 5636 5636 5635 5631 5629 5624 5626 5629 5635 5637 5636 5635 5634 5633 5631 5629 5628 5628 5626 5625 5623 5621 5620 5618 5616 5615 5614 5613 5611 5609 5607
5673 5670 5668 5661 5658 5654 5650 5643 5639 5639 5633 5634 5631 5630 5629 5628 5623 5621 5622 5623 5628 5634 5633 5632 5628 5630 5629 5628 5627 5625 5624 5622 5621 5619 5616 5615 5613 5612 5610 5608 5606 5605 5603
5668 5665 5663 5659 5654 5649 5645 5638 5635 5634 5629 5628 5627 5623 5625 5622 5621 5618 5618 5619 5623 5630 5630 5629 5626 5627 5626 5626 5624 5622 5622 5619 5618 5615 5612 5611 5609 5607 5605 5603 5601 5600 5599
5664 5661 5659 5655 5650 5645 5641 5636 5634 5631 5627 5625 5624 5620 5622 5620 5619 5616 5618 5619 5619 5624 5629 5627 5626 5624 5623 5624 5622 5620 5619 5617 5614 5612 5609 5607 5606 5605 5603 5601 5599 5597 5595
5660 5659 5656 5653 5648 5642 5636 5634 5632 5629 5627 5622 5618 5615 5614 5616 5614 5614 5615 5616 5616 5618 5620 5623 5622 5620 5620 5620 5619 5617 5616 5614 5611 5609 5607 5604 5601 5600 5599 5597 5595 5593 5592
5658 5656 5652 5650 5647 5640 5636 5634 5630 5625 5624 5620 5612 5612 5611 5610 5612 5612 5611 5613 5613 5614 5615 5618 5617 5615 5616 5616 5615 5613 5612 5611 5609 5606 5604 5600 5597 5595 5593 5592 5590 5588 5587
5658 5654 5652 5648 5644 5639 5634 5633 5629 5626 5623 5620 5613 5609 5607 5605 5606 5607 5607 5609 5610 5612 5615 5613 5613 5612 5612 5611 5610 5609 5607 5607 5605 5603 5600 5596 5593 5591 5589 5588 5587 5585 5584
5658 5653 5651 5646 5642 5638 5633 5631 5628 5625 5622 5620 5617 5611 5606 5608 5606 5603 5607 5608 5608 5609 5610 5610 5609 5608 5608 5608 5606 5605 5605 5603 5602 5600 5597 5594 5592 5589 5587 5584 5583 5582 5580
5656 5650 5648 5645 5641 5637 5633 5629 5627 5624 5621 5619 5613 5613 5612 5609 5603 5600 5601 5603 5605 5606 5608 5606 5605 5604 5603 5603 5603 5602 5600 5599 5598 5596 5594 5591 5589 5587 5584 5580 5579 5578 5575
5652 5649 5645 5643 5639 5635 5631 5626 5623 5621 5619 5616 5614 5610 5606 5604 5604 5602 5601 5599 5596 5600 5602 5602 5601 5600 5600 5599 5598 5597 5596 5595 5594 5592 5591 5589 5587 5585 5582 5579 5575 5574 5573
5647 5645 5642 5641 5637 5632 5628 5624 5620 5618 5614 5611 5610 5609 5609 5604 5602 5600 5599 5597 5597 5596 5597 5596 5595 5596 5595 5594 5594 5593 5593 5590 5590 5588 5587 5585 5583 5581 5579 5576 5574 5572 5570
5642 5641 5642 5638 5632 5627 5624 5621 5617 5614 5609 5606 5606 5606 5603 5604 5600 5600 5598 5595 5593 5591 5592 5593 5592 5592 5592 5591 5590 5589 5590 5587 5585 5584 5582 5580 5577 5576 5575 5573 5571 5569 5567
5642 5641 5639 5634 5628 5622 5620 5617 5615 5611 5607 5605 5604 5603 5600 5599 5597 5595 5595 5592 5586 5587 5587 5591 5591 5590 5590 5589 5589 5588 5586 5585 5582 5580 5577 5574 5574 5573 5571 5569 5567 5565 5563
5633 5633 5632 5630 5622 5617 5614 5613 5609 5606 5603 5603 5602 5599 5598 5597 5596 5592 5592 5594 5594 5586 5586 5585 5588 5589 5588 5587 5587 5585 5583 5582 5578 5576 5573 5572 5572 5569 5567 5565 5563 5562 5560
5626 5626 5625 5623 5616 5611 5609 5607 5605 5602 5599 5599 5597 5596 5596 5594 5593 5589 5591 5590 5591 5588 5585 5589 5588 5589 5589 5587 5585 5582 5580 5577 5574 5570 5569 5569 5567 5565 5562 5561 5559 5557 5555
5616 5617 5617 5614 5607 5605 5602 5600 5599 5595 5593 5592 5592 5592 5593 5592 5591 5589 5587 5589 5586 5587 5585 5580 5583 5584 5585 5583 5579 5575 5571 5565 5563 5561 5561 5561 5559 5557 5556 5555 5553 5551 5550
5606 5607 5605 5603 5601 5598 5598 5597 5593 5593 5591 5588 5587 5588 5589 5587 5587 5586 5587 5587 5586 5587 5584 5579 5578 5579 5580 5577 5572 5567 5562 5555 5552 5550 5552 5548 5548 5547 5548 5546 5543 5541 5539
5599 5596 5596 5594 5595 5594 5594 5593 5590 5589 5587 5584 5585 5585 5586 5584 5583 5581 5588 5587 5585 5581 5581 5578 5575 5576 5572 5567 5564 5557 5551 5544 5538 5537 5537 5537 5536 5533 5533 5530 5528 5527 5526
5594 5589 5588 5588 5587 5586 5587 5587 5586 5585 5581 5579 5578 5580 5584 5583 5585 5587 5587 5587 5585 5582 5579 5576 5572 5571 5569 5560 5560 5554 5543 5536 5529 5525 5525 5524 5520 5518 5517 5518 5518 5515 5513
5581 5581 5576 5574 5572 5574 5572 5575 5578 5581 5574 5570 5567 5569 5567 5570 5579 5584 5585 5584 5583 5581 5579 5575 5570 5566 5562 5559 5558 5550 5538 5528 5520 5518 5519 5513 5512 5507 5505 5504 5503 5501 5499
5560 5560 5555 5558 5557 5558 5561 5568 5569 5571 5563 5561 5560 5558 5555 5554 5555 5560 5562 5561 5568 5577 5576 5572 5566 5563 5555 5551 5545 5544 5531 5521 5516 5510 5507 5499 5497 5494 5491 5490 5488 5485 5484
5542 5538 5540 5541 5539 5542 5549 5555 5558 5556 5550 5547 5546 5547 5544 5542 5545 5545 5547 5550 5548 5549 5550 5560 5559 5548 5541 5537 5538 5531 5527 5522 5509 5498 5497 5485 5481 5478 5475 5473 5471 5470 5466
5520 5520 5521 5523 5526 5527 5532 5536 5541 5541 5536 5531 5532 5532 5531 5530 5532 5536 5533 5533 5529 5528 5528 5532 5530 5522 5523 5523 5522 5520 5512 5499 5489 5483 5483 5474 5466 5461 5458 5457 5453 5452 5450
5502 5499 5501 5505 5509 5510 5513 5515 5522 5524 5522 5516 5515 5516 5516 5515 5516 5518 5519 5514 5508 5502 5503 5508 5505 5507 5506 5505 5505 5503 5494 5491 5477 5466 5464 5463 5451 5447 5442 5437 5435 5432 5429
5487 5484 5484 5487 5490 5493 5494 5495 5503 5506 5506 5501 5498 5496 5497 5499 5499 5500 5499 5496 5493 5484 5487 5487 5486 5487 5485 5485 5483 5483 5481 5474 5464 5452 5447 5445 5436 5435 5430 5417 5415 5411 5408